Regional Weather Roundup
Issued by NWS Albany, NY

Home | Current Version | Previous Version | Graphics & Text | Print | Product List | Glossary On
Versions: 1 2 3 4 5 6 7 8 9 10 11 12 13 14 15 16 17 18 19 20 21 22 23 24 25 26 27
000
ASUS41 KALY 100010
RWRALY

NEW YORK STATE HOURLY WEATHER ROUNDUP
NATIONAL WEATHER SERVICE ALBANY NY
700 PM EST SAT DEC 09 2017

NOTE: "FAIR" INDICATES FEW OR NO CLOUDS BELOW 12,000 FEET WITH NO
SIGNIFICANT WEATHER AND/OR NO OBSTRUCTIONS TO VISIBILITY.

NYZ032-033-038>043-046>054-057>066-NYZ062>081-082-084-100100-
EAST


CITY           SKY/WX    TMP DP  RH WIND       PRES   REMARKS
ALBANY         LGT SNOW  28  24  85 NW6       29.77F VSB 3/4 WCI  22
GLENS FALLS    LGT SNOW  27  26  96 NW3       29.77F FOG
POUGHKEEPSIE   LGT SNOW  28  26  92 N5        29.75S FOG     WCI  23
NEWBURGH       LGT SNOW  28  28 100 N8        29.74S WCI  20
MONTGOMERY     FLURRIES  28  26  92 N3        29.73F
WHITE PLAINS   LGT SNOW  30  28  92 N10       29.69F FOG     WCI  21
ISLIP          LGT SNOW  33  32  96 N12       29.68S FOG     WCI  24
NEW YORK CITY  LGT SNOW  33  30  88 N10       29.72S FOG     WCI  25
CENTRAL PARK   LGT SNOW  31  30  96 VRB3      29.75R FOG
$$

NYZ005>009-017-018-044>046-055-056-100100-
CENTRAL


CITY           SKY/WX    TMP DP  RH WIND       PRES   REMARKS
FULTON         CLEAR     26  19  74 CALM      29.76F
SYRACUSE       CLOUDY    27  20  75 CALM      29.75F
ROME           MOCLDY    28  18  66 E3        29.77S
ELMIRA         PTCLDY    25  17  72 CALM      29.74S
BINGHAMTON     CLOUDY    24  16  71 CALM      29.69R
MONTICELLO     LGT SNOW  27  25  93 W5        29.71S FOG     WCI  21
$$

NYZ026>034-041>043-087-100100-
NORTH


CITY           SKY/WX    TMP DP  RH WIND       PRES   REMARKS
WATERTOWN      PTCLDY    22  19  89 E5        29.76S WCI  16
FORT DRUM      NOT AVBL
OGDENSBURG     FAIR      30  26  86 E5        29.77F WCI  25
MASSENA        CLOUDY    27  25  92 CALM      29.79F
SARANAC LAKE   PTCLDY    20  18  92 CALM      29.68F
PLATTSBURGH    CLOUDY    30  19  63 NW5       29.77F WCI  25
$$

NYZ001>004-010>016-019>021-085-100100-
WEST


CITY           SKY/WX    TMP DP  RH WIND       PRES   REMARKS
NIAGARA FALLS  CLOUDY    31  18  58 W5        29.76S WCI  26
BUFFALO        CLOUDY    30  17  58 CALM      29.76S
DUNKIRK        CLOUDY    30  16  56 SW6       29.78R WCI  24
JAMESTOWN      MOCLDY    27  12  53 NW6       29.72S WCI  20
WELLSVILLE     CLOUDY    28   9  44 SW6       29.69S WCI  22
ROCHESTER      MOCLDY    29  15  56 NW5       29.76S WCI  24
PENN YAN       PTCLDY    24  14  65 S6        29.73S WCI  17
$$

             KEY
       WCI = WIND CHILL INDEX
       VSB = VISIBILITY
       HX  = HEAT INDEX
$$




USA.gov is the U.S. government's official web portal to all federal, state and local government web resources and services.